Météo par heure à Jurkow

Ce jour, 20 Juin, Dimanche

Heure Température Précipitation Vent Pression Humidité
00:00 +22°C° 0 mm 1 m/s 736 mmHg 73%
01:00 +22°C° 0 mm 1 m/s 736 mmHg 72%
02:00 +22°C° 0 mm 1 m/s 735 mmHg 70%
03:00 +21°C° 0 mm 2 m/s 735 mmHg 69%
04:00 +21°C° 0 mm 2 m/s 734 mmHg 68%
05:00 +24°C° 0 mm 2 m/s 735 mmHg 65%
06:00 +25°C° 0 mm 2 m/s 735 mmHg 63%
07:00 +27°C° 0 mm 2 m/s 735 mmHg 60%
08:00 +29°C° 0 mm 2 m/s 735 mmHg 54%
09:00 +30°C° 0 mm 2 m/s 735 mmHg 49%
10:00 +32°C° 0 mm 2 m/s 735 mmHg 43%
11:00 +32°C° 0 mm 2 m/s 735 mmHg 41%
12:00 +34°C° 0 mm 2 m/s 735 mmHg 38%
13:00 +34°C° 0 mm 2 m/s 735 mmHg 36%
14:00 +34°C° 0 mm 2 m/s 734 mmHg 37%
15:00 +34°C° 0 mm 2 m/s 734 mmHg 38%
16:00 +34°C° 0 mm 2 m/s 734 mmHg 39%
17:00 +31°C° 0 mm 2 m/s 733 mmHg 48%
18:00 +30°C° 0 mm 3 m/s 733 mmHg 57%
19:00 +28°C° 0 mm 3 m/s 733 mmHg 66%
20:00 +27°C° 0 mm 3 m/s 733 mmHg 69%
21:00 +25°C° 0 mm 2 m/s 733 mmHg 71%
22:00 +24°C° 0 mm 2 m/s 733 mmHg 74%
23:00 +24°C° 0 mm 2 m/s 732 mmHg 75%

Demain, 21 Juin, Lundi

Heure Température Précipitation Vent Pression Humidité
00:00 +23°C° 0 mm 2 m/s 732 mmHg 76%
01:00 +21°C° 0 mm 2 m/s 732 mmHg 77%
02:00 +21°C° 0 mm 2 m/s 731 mmHg 78%
03:00 +20°C° 0 mm 2 m/s 731 mmHg 79%
04:00 +20°C° 0 mm 2 m/s 731 mmHg 80%
05:00 +23°C° 0 mm 2 m/s 731 mmHg 74%
06:00 +25°C° 0 mm 2 m/s 731 mmHg 69%
07:00 +26°C° 0 mm 2 m/s 732 mmHg 64%
08:00 +28°C° 0 mm 2 m/s 732 mmHg 59%
09:00 +30°C° 0 mm 3 m/s 732 mmHg 54%
10:00 +31°C° 0 mm 3 m/s 732 mmHg 49%
11:00 +31°C° 0.4 mm 3 m/s 732 mmHg 53%
12:00 +30°C° 0.4 mm 3 m/s 732 mmHg 56%
13:00 +30°C° 0.4 mm 3 m/s 732 mmHg 60%
14:00 +28°C° 1.7 mm 3 m/s 732 mmHg 66%
15:00 +27°C° 1.7 mm 3 m/s 732 mmHg 73%
16:00 +25°C° 1.7 mm 4 m/s 732 mmHg 80%
17:00 +24°C° 2.3 mm 3 m/s 732 mmHg 84%
18:00 +22°C° 2.3 mm 3 m/s 732 mmHg 88%
19:00 +21°C° 2.3 mm 3 m/s 733 mmHg 92%
20:00 +20°C° 0.5 mm 2 m/s 733 mmHg 93%
21:00 +20°C° 0.5 mm 1 m/s 733 mmHg 94%
22:00 +19°C° 0.5 mm 1 m/s 733 mmHg 96%
23:00 +19°C° 0 mm 1 m/s 733 mmHg 95%

Après-demain, 22 Juin, Mardi

Heure Température Précipitation Vent Pression Humidité
00:00 +19°C° 0 mm 1 m/s 733 mmHg 95%
01:00 +19°C° 0 mm 1 m/s 733 mmHg 94%
02:00 +18°C° 0 mm 1 m/s 733 mmHg 95%
03:00 +18°C° 0 mm 1 m/s 733 mmHg 95%
04:00 +18°C° 0 mm 1 m/s 734 mmHg 95%
05:00 +19°C° 0 mm 1 m/s 734 mmHg 92%
06:00 +20°C° 0 mm 1 m/s 734 mmHg 88%
07:00 +21°C° 0 mm 2 m/s 735 mmHg 85%
08:00 +23°C° 0 mm 2 m/s 735 mmHg 79%
09:00 +24°C° 0 mm 3 m/s 735 mmHg 72%
10:00 +26°C° 0 mm 3 m/s 735 mmHg 66%
11:00 +26°C° 0 mm 3 m/s 735 mmHg 66%
12:00 +26°C° 0 mm 2 m/s 735 mmHg 67%
13:00 +26°C° 0 mm 2 m/s 735 mmHg 67%
14:00 +26°C° 0 mm 2 m/s 735 mmHg 67%
15:00 +26°C° 0 mm 2 m/s 735 mmHg 67%
16:00 +26°C° 0 mm 3 m/s 735 mmHg 66%
17:00 +26°C° 0 mm 3 m/s 735 mmHg 69%
18:00 +25°C° 0 mm 3 m/s 735 mmHg 73%
19:00 +25°C° 0 mm 2 m/s 735 mmHg 76%
20:00 +24°C° 0 mm 3 m/s 735 mmHg 76%
21:00 +22°C° 0 mm 3 m/s 735 mmHg 76%
22:00 +21°C° 0 mm 3 m/s 735 mmHg 76%
23:00 +20°C° 1 mm 3 m/s 735 mmHg 82%

23 Juin, Mercredi

Heure Température Précipitation Vent Pression Humidité
00:00 +19°C° 1 mm 2 m/s 735 mmHg 87%
01:00 +18°C° 1 mm 2 m/s 734 mmHg 93%
02:00 +18°C° 3.7 mm 2 m/s 734 mmHg 93%
03:00 +18°C° 3.7 mm 2 m/s 734 mmHg 94%
04:00 +18°C° 3.7 mm 1 m/s 734 mmHg 95%
05:00 +18°C° 0 mm 2 m/s 735 mmHg 91%
06:00 +19°C° 0 mm 2 m/s 735 mmHg 87%
07:00 +20°C° 0 mm 2 m/s 736 mmHg 84%
08:00 +21°C° 0 mm 3 m/s 736 mmHg 78%
09:00 +22°C° 0 mm 4 m/s 737 mmHg 73%
10:00 +23°C° 0 mm 5 m/s 737 mmHg 67%
11:00 +21°C° 0 mm 5 m/s 738 mmHg 72%
12:00 +20°C° 0 mm 6 m/s 738 mmHg 76%
13:00 +19°C° 0 mm 6 m/s 738 mmHg 81%
14:00 +17°C° 0 mm 6 m/s 739 mmHg 80%
15:00 +17°C° 0 mm 5 m/s 739 mmHg 80%
16:00 +17°C° 0 mm 5 m/s 740 mmHg 79%
17:00 +18°C° 0 mm 4 m/s 740 mmHg 79%
18:00 +17°C° 0 mm 4 m/s 740 mmHg 79%
19:00 +17°C° 0 mm 3 m/s 740 mmHg 79%
20:00 +17°C° 0 mm 3 m/s 740 mmHg 78%
21:00 +17°C° 0 mm 2 m/s 740 mmHg 77%
22:00 +17°C° 0 mm 2 m/s 740 mmHg 77%
23:00 +16°C° 0 mm 1 m/s 740 mmHg 77%

24 Juin, Jeudi

Heure Température Précipitation Vent Pression Humidité
00:00 +16°C° 0 mm 1 m/s 740 mmHg 78%
01:00 +16°C° 0 mm 1 m/s 740 mmHg 78%
02:00 +16°C° 0 mm 1 m/s 740 mmHg 80%
03:00 +16°C° 0 mm 1 m/s 740 mmHg 81%
04:00 +15°C° 0 mm 1 m/s 739 mmHg 83%
05:00 +16°C° 0.1 mm 1 m/s 739 mmHg 83%
06:00 +16°C° 0.1 mm 2 m/s 740 mmHg 84%
07:00 +16°C° 0.1 mm 2 m/s 740 mmHg 84%
08:00 +16°C° 0.2 mm 2 m/s 740 mmHg 85%
09:00 +16°C° 0.2 mm 2 m/s 740 mmHg 85%
10:00 +17°C° 0.2 mm 2 m/s 740 mmHg 86%
11:00 +17°C° 0.2 mm 2 m/s 740 mmHg 87%
12:00 +17°C° 0.2 mm 2 m/s 740 mmHg 88%
13:00 +17°C° 0.2 mm 2 m/s 740 mmHg 89%
14:00 +16°C° 0.1 mm 2 m/s 740 mmHg 90%
15:00 +16°C° 0.1 mm 2 m/s 740 mmHg 92%
16:00 +16°C° 0.1 mm 2 m/s 740 mmHg 93%
17:00 +16°C° 0 mm 2 m/s 740 mmHg 94%
18:00 +16°C° 0 mm 2 m/s 740 mmHg 94%
19:00 +15°C° 0 mm 1 m/s 740 mmHg 95%
20:00 +15°C° 0.1 mm 1 m/s 740 mmHg 96%
21:00 +15°C° 0.1 mm 1 m/s 740 mmHg 97%
22:00 +15°C° 0.1 mm 1 m/s 740 mmHg 97%
23:00 +15°C° 0 mm 1 m/s 740 mmHg 97%

25 Juin, Vendredi

Heure Température Précipitation Vent Pression Humidité
00:00 +14°C° 0 mm 1 m/s 740 mmHg 98%
01:00 +14°C° 0 mm 1 m/s 740 mmHg 98%
02:00 +14°C° 0 mm 2 m/s 740 mmHg 98%
03:00 +14°C° 0 mm 2 m/s 740 mmHg 97%
04:00 +14°C° 0 mm 2 m/s 740 mmHg 97%
05:00 +14°C° 0 mm 2 m/s 740 mmHg 96%
06:00 +15°C° 0 mm 2 m/s 740 mmHg 95%
07:00 +15°C° 0 mm 2 m/s 740 mmHg 94%
08:00 +15°C° 0 mm 2 m/s 740 mmHg 93%
09:00 +15°C° 0 mm 2 m/s 740 mmHg 92%
10:00 +16°C° 0 mm 2 m/s 740 mmHg 91%
11:00 +17°C° 0.1 mm 2 m/s 740 mmHg 85%
12:00 +18°C° 0.1 mm 2 m/s 740 mmHg 80%
13:00 +20°C° 0.1 mm 2 m/s 740 mmHg 74%
14:00 +20°C° 0.4 mm 2 m/s 740 mmHg 75%
15:00 +20°C° 0.4 mm 2 m/s 740 mmHg 76%
16:00 +20°C° 0.4 mm 2 m/s 740 mmHg 77%
17:00 +19°C° 0.8 mm 2 m/s 740 mmHg 83%
18:00 +18°C° 0.8 mm 2 m/s 739 mmHg 88%
19:00 +17°C° 0.8 mm 2 m/s 739 mmHg 93%
20:00 +16°C° 0.2 mm 2 m/s 740 mmHg 94%
21:00 +16°C° 0.2 mm 2 m/s 740 mmHg 95%
22:00 +15°C° 0.2 mm 2 m/s 740 mmHg 96%
23:00 +15°C° 0.4 mm 2 m/s 740 mmHg 96%
Voir plus

Nous avons besoin de votre consentement

Meteoprog et ses fournisseurs de services peuvent stocker et accéder à des données personnelles telles que des cookies, des identifiants d'appareils ou d'autres technologies similaires sur votre appareil et traiter ces données pour personnaliser le contenu et les publicités, ainsi que pour fournir des fonctionnalités de médias sociaux et analyser le trafic.

  • Stocker et/ou accéder à des informations sur votre appareil

    Des cookies, des identifiants d'appareils ou d'autres informations peuvent être stockés ou accessibles sur votre appareil aux fins indiquées ci-dessus.

  • Annonces et contenus personnalisés, mesure des annonces et des contenus, connaissance de l'audience et développement de produits

    Les annonces et le contenu peuvent être personnalisés en fonction d'un profil. D'autres données peuvent être ajoutées pour mieux personnaliser les annonces et le contenu. Les performances des publicités et du contenu peuvent être mesurées. Il est possible d'obtenir des informations sur le public qui a vu les publicités et le contenu. Ces données peuvent être utilisées pour développer ou améliorer l'expérience de l'utilisateur, les systèmes et les logiciels.

En cliquant sur "J'accepte", vous autorisez l'utilisation de cookies, des identifiants d'appareils, des balises web ou d'autres technologies similaires. Vos paramètres peuvent être modifiés dans le navigateur de votre appareil.

Dans certains cas, des intérêts légitimes peuvent être invoqués plutôt qu'un consentement. Vous pouvez en savoir plus à ce sujet dans notre Politique de confidentialité et de cookies.